{"data":{"norad_id":62856,"epoch":"2026-05-25T04:00:03.998880Z","epoch_age_seconds":53923,"freshness":"FRESH","line1":"1 62856U 25022C   26145.16671295 -.00016181  00000+0 -48173-3 0  9997","line2":"2 62856  53.1590 134.6287 0001165  83.8766 348.7414 15.33547974  5918","mean_motion":15.33547974,"eccentricity":0.0001165,"inclination_deg":53.159,"raan_deg":134.6287,"arg_perigee_deg":83.8766,"mean_anomaly_deg":348.7414,"bstar":-0.00048173,"rev_number":591,"period_min":93.899899084605,"perigee_km":464.43956039716,"apogee_km":466.03406649569,"semimajor_km":6843.3738134464,"source":"CELESTRAK","updated_at":"2026-05-25T13:38:19.783206Z"}}